Location: Plum
(40.5000°N, 79.7500°W)
Time: 12:37:31
(UTC-04:00)

MOZ.5/SAFIR/RUBIN 5/SL-8 - Visible Passes

Search period start: 23 May 2017 00:00
Search period end: 02 June 2017 00:00
Orbit: 679 x 705 km, 97.9° (Epoch: 22 May)

Date Brightness Start Highest point End Pass type
(mag) Time Alt. Az. Time Alt. Az. Time Alt. Az.
23 May 5.4 03:38:31 10° SE 03:42:47 35° ENE 03:47:06 10° N visible
23 May 5.0 05:16:35 10° SSW 05:20:24 24° W 05:24:16 10° NW visible
24 May 3.8 04:17:36 10° SSE 04:22:20 87° E 04:27:09 10° NNW visible
25 May 6.0 03:21:02 10° ESE 03:24:47 24° ENE 03:28:34 10° NNE visible
25 May 4.4 04:57:46 10° SSW 05:02:08 36° W 05:06:32 10° NNW visible
26 May 4.4 03:59:35 10° SSE 04:04:14 57° ENE 04:08:55 10° N visible
27 May 6.5 03:03:54 10° ESE 03:06:49 16° ENE 03:09:44 10° NNE visible
27 May 3.9 04:39:15 10° S 04:43:55 56° W 04:48:37 10° NNW visible
28 May 5.2 03:41:47 10° SE 03:46:09 38° ENE 03:50:34 10° N visible
28 May 5.1 05:20:09 10° SW 05:23:50 22° W 05:27:32 10° NW visible
29 May 6.8 02:47:38 10° ENE 02:48:54 11° ENE 02:50:10 10° NE visible
29 May 3.8 04:20:58 10° SSE 04:25:44 85° WSW 04:30:32 10° NNW visible
30 May 5.9 03:24:14 10° ESE 03:28:08 26° ENE 03:32:03 10° NNE visible
30 May 4.6 05:01:16 10° SSW 05:05:32 33° W 05:09:52 10° NNW visible
31 May 4.3 04:02:54 10° SSE 04:07:36 63° ENE 04:12:21 10° N visible
01 Jun 6.4 03:07:00 10° ESE 03:10:09 18° ENE 03:13:19 10° NNE visible
01 Jun 4.0 04:42:41 10° S 04:47:18 50° W 04:51:59 10° NNW visible
